| time (UTC) | temp C | wind direction | speed KPH | gust KPH | rain 1hr cm | rain 24hr cm | rain mn cm | humidity % | barometer mb |
| 20260504231527 | 12 | 168 | 11.3 | 17.7 | 0.00 | 0.03 | 0.03 | 69 | 1005.6 |
| 20260504230032 | 13 | 196 | 6.4 | 12.9 | 0.00 | 0.03 | 0.03 | 65 | 1005.4 |
| 20260504224530 | 14 | 167 | 8.0 | 12.9 | 0.00 | 0.03 | 0.03 | 62 | 1005.2 |
| 20260504223032 | 15 | 177 | 6.4 | 9.7 | 0.00 | 0.03 | 0.03 | 58 | 1005.4 |
| 20260504221529 | 16 | 199 | 3.2 | 11.3 | 0.00 | 0.03 | 0.03 | 57 | 1005.4 |
| 20260504220032 | 15 | 180 | 0.0 | 14.5 | 0.00 | 0.03 | 0.03 | 58 | 1005.3 |
| 20260504214529 | 15 | 188 | 3.2 | 16.1 | 0.00 | 0.03 | 0.03 | 57 | 1005.0 |
| 20260504213030 | 16 | 197 | 8.0 | 19.3 | 0.00 | 0.03 | 0.03 | 57 | 1004.9 |
| 20260504211536 | 15 | 222 | 4.8 | 20.9 | 0.00 | 0.03 | 0.03 | 58 | 1004.9 |
| 20260504210028 | 15 | 201 | 3.2 | 17.7 | 0.00 | 0.03 | 0.03 | 59 | 1004.8 |
| 20260504204529 | 15 | 194 | 12.9 | 27.4 | 0.00 | 0.03 | 0.03 | 58 | 1004.8 |
| 20260504203032 | 15 | 186 | 4.8 | 19.3 | 0.00 | 0.03 | 0.03 | 58 | 1004.7 |
| 20260504201530 | 15 | 221 | 11.3 | 24.1 | 0.00 | 0.03 | 0.03 | 60 | 1004.6 |
| 20260504200030 | 15 | 199 | 9.7 | 20.9 | 0.00 | 0.03 | 0.03 | 62 | 1004.7 |
| 20260504194528 | 14 | 150 | 4.8 | 17.7 | 0.00 | 0.03 | 0.03 | 65 | 1004.7 |
| 20260504193027 | 13 | 240 | 8.0 | 14.5 | 0.00 | 0.03 | 0.03 | 68 | 1004.8 |
| 20260504191528 | 12 | 206 | 4.8 | 11.3 | 0.03 | 0.03 | 0.03 | 74 | 1005.1 |
| 20260504190032 | 11 | 202 | 4.8 | 12.9 | 0.03 | 0.03 | 0.03 | 77 | 1005.4 |
| 20260504184542 | 11 | 352 | 4.8 | 12.9 | 0.03 | 0.08 | 0.03 | 76 | 1005.7 |
| 20260504183030 | 11 | 305 | 6.4 | 12.9 | 0.03 | 0.08 | 0.03 | 74 | 1005.9 |
| 20260504181534 | 11 | 315 | 1.6 | 14.5 | 0.00 | 0.05 | 0.00 | 68 | 1005.7 |
| 20260504180030 | 12 | 199 | 9.7 | 20.9 | 0.00 | 0.05 | 0.00 | 60 | 1005.6 |
| 20260504174528 | 11 | 245 | 9.7 | 22.5 | 0.00 | 0.18 | 0.00 | 61 | 1005.2 |
| 20260504173028 | 11 | 219 | 8.0 | 24.1 | 0.00 | 0.18 | 0.00 | 62 | 1005.2 |
| 20260504171530 | 11 | 198 | 14.5 | 29.0 | 0.00 | 0.18 | 0.00 | 68 | 1005.0 |
| 20260504081532 | 3 | 0 | 3.2 | 12.9 | 0.00 | 1.80 | 0.00 | 75 | 1006.1 |
| 20260504044530 | 5 | 319 | 8.0 | 16.1 | 0.00 | 2.08 | 0.00 | 70 | 1004.9 |
| 20260504043031 | 5 | 302 | 3.2 | 14.5 | 0.00 | 2.08 | 0.00 | 70 | 1004.8 |
| 20260504041534 | 5 | 303 | 1.6 | 16.1 | 0.00 | 2.08 | 0.00 | 68 | 1004.7 |
| 20260504040034 | 5 | 319 | 8.0 | 20.9 | 0.00 | 2.08 | 0.00 | 66 | 1004.6 |
| 20260504034531 | 6 | 278 | 12.9 | 24.1 | 0.00 | 2.08 | 2.08 | 64 | 1004.4 |
| 20260504033028 | 6 | 275 | 14.5 | 25.7 | 0.00 | 2.08 | 2.08 | 63 | 1004.4 |
| 20260504031528 | 6 | 315 | 17.7 | 29.0 | 0.00 | 2.08 | 2.08 | 62 | 1004.2 |
| 20260504030033 | 6 | 286 | 14.5 | 22.5 | 0.00 | 2.08 | 2.08 | 63 | 1004.1 |
| 20260504024532 | 6 | 286 | 12.9 | 22.5 | 0.00 | 2.08 | 2.08 | 63 | 1003.9 |
| 20260504023034 | 6 | 285 | 16.1 | 25.7 | 0.00 | 2.08 | 2.08 | 63 | 1003.9 |
| 20260504021530 | 6 | 285 | 17.7 | 29.0 | 0.00 | 2.08 | 2.08 | 63 | 1003.8 |
| 20260504020028 | 6 | 292 | 14.5 | 33.8 | 0.00 | 2.08 | 2.08 | 65 | 1003.8 |
| 20260504014534 | 6 | 276 | 16.1 | 27.4 | 0.00 | 2.08 | 2.08 | 67 | 1003.4 |
| 20260504013032 | 7 | 293 | 12.9 | 29.0 | 0.00 | 2.08 | 2.08 | 68 | 1003.2 |
| 20260504011530 | 7 | 311 | 16.1 | 24.1 | 0.00 | 2.08 | 2.08 | 73 | 1002.9 |
| 20260504010028 | 7 | 289 | 16.1 | 25.7 | 0.00 | 2.08 | 2.08 | 80 | 1002.8 |
| 20260504004529 | 6 | 304 | 4.8 | 12.9 | 0.00 | 2.08 | 2.08 | 86 | 1002.6 |
| 20260504003032 | 7 | 273 | 8.0 | 14.5 | 0.00 | 2.08 | 2.08 | 85 | 1002.2 |
| 20260504001537 | 7 | 293 | 4.8 | 14.5 | 0.00 | 2.08 | 2.08 | 86 | 1002.1 |
| 20260504000032 | 7 | 292 | 4.8 | 16.1 | 0.00 | 2.08 | 2.08 | 86 | 1001.9 |
| 20260503234541 | 7 | 300 | 8.0 | 14.5 | 0.00 | 2.08 | 2.08 | 86 | 1001.7 |
| 20260503233036 | 7 | 286 | 9.7 | 22.5 | 0.00 | 2.08 | 2.08 | 84 | 1001.6 |